Main page
METAR-TAF:

METAR-TAF

Airports :

Chandigarh, India

Chandigarh Airport

latitude: 30-40-29N, longitude: 76-47-26E, elevation: 314 m

Current weather observation

The report was made 10 hours and 51 minutes ago, at 06:30 UTC
Wind 8 kt from the Southeast
Temperature 34°C
Humidity 50%
Pressure 1003 hPa
Visibility: 6000 m
Few clouds at a height of 3000 ft
Scattered clouds at a height of 25000 ft

METAR: VICG 260630Z 14008KT 6000 FEW030 SCT250 34/22 Q1003 NOSIG

Time: 22:51 (17:21 UTC)


TAF: missing

Weather observations and forecasts of more than 4000 airports (METAR and TAF reports).

The available stations are represented by yellow and red dots on the map.

Hover mouse over dot to see the name of the station.

Then click to see weather observations and forecasts.

To change the map : click on the green buttons with a black cross to zoom in, on the green button with a dash to zoom out, or on the green arrows for adjacent maps.


METAR-TAF: